www.pogodaiklimat.ru

Погода и климат >> Архив погоды >> Австралия >> Mardie


ПОГОДА в Mardie

  • Прогноз погоды в Mardie
  • Монитор погоды в Mardie
  • Климат города

АРХИВ ПОГОДЫ в Mardie

Время (UTC), дата Ветер
(напр.,м/с)
 
Видим.   Явления Облачность Т
(С)
Тd
(С)
f
(%)
Тe
(С)
Тes
(С)
Комфортность P
(гПа)
Po
(гПа)
Тmin
(С)
Tmax
(С)
R
(мм)
R24
(мм)
S
(см)
10 9.10 З 6 н/о н/о +27.3 +16.6 52 +31 +31 душно 1010.5 1009.1
12 9.10 З 5 н/о н/о +25.0 +18.2 66 +29 +29 душно 1011.4 1010.0
13 9.10 З 5 н/о н/о +24.2 +18.6 71 +29 +29 душно 1012.0 1010.6 +34.4
15 9.10 З 2 н/о н/о +23.0 +18.5 76 +29 +29 очень
душно
1012.3 1010.9
16 9.10 З 3 н/о н/о +22.8 +16.8 69 +28 +28 душно 1012.1 1010.7
18 9.10 З 2 н/о н/о +20.7 +15.7 73 +24 +24 комфорт 1011.7 1010.3
19 9.10 З 2 н/о н/о +19.7 +15.1 75 +22 +22 комфорт 1011.6 1010.2
21 9.10 ЮЗ 3 н/о н/о +19.1 +14.8 76 +21 +21 комфорт 1012.1 1010.7
22 9.10 ЮЗ 3 н/о н/о +18.9 +14.8 77 +20 +20 1012.6 1011.2
00 10.10 ЮЗ 5 н/о н/о +23.4 +14.7 58 +27 +27 душно 1013.4 1012.0
01 10.10 Ю 4 н/о н/о +26.9 +14.0 45 +29 +29 жарко 1013.3 1011.9 +18.7
03 10.10 ЮЗ 5 н/о н/о +32.4 +11.0 27 +32 +32 жарко 1012.3 1010.9
04 10.10 З 7 н/о н/о +31.3 +15.7 39 +34 +34 душно 1011.6 1010.2
06 10.10 З 7 н/о н/о +32.3 +14.9 35 +34 +34 душно 1010.4 1009.0
07 10.10 З 8 н/о н/о +31.1 +13.4 34 +32 +32 жарко 1010.2 1008.8
09 10.10 З 8 н/о н/о +27.9 +15.9 48 +31 +31 душно 1010.2 1008.8
10 10.10 З 6 н/о н/о +26.6 +16.2 53 +30 +30 душно 1010.6 1009.2
12 10.10 З 5 н/о н/о +24.0 +18.2 70 +28 +28 душно 1011.7 1010.3
13 10.10 З 4 н/о н/о +23.5 +19.0 76 +28 +28 душно 1012.1 1010.7 +33.7
15 10.10 З 2 н/о н/о +22.2 +17.6 75 +27 +27 душно 1012.3 1010.9
16 10.10 З 4 н/о н/о +21.8 +15.6 68 +25 +25 комфорт 1011.8 1010.4
18 10.10 З 3 н/о н/о +20.0 +14.1 69 +23 +23 комфорт 1011.2 1009.8
19 10.10 З 2 н/о н/о +19.3 +13.5 69 +21 +21 комфорт 1011.0 1009.6
21 10.10 З 2 н/о н/о +17.3 +12.0 71 +18 +18 1011.4 1010.0
22 10.10 З 3 н/о н/о +17.1 +11.8 71 +17 +17 1012.0 1010.6
00 11.10 ЮЗ 4 н/о н/о +22.8 +9.6 43 +24 +24 комфорт 1012.9 1011.5
01 11.10 Ю 3 н/о н/о +25.9 +8.8 34 +26 +26 жарко 1013.1 1011.7 +17.0
03 11.10 З 3 н/о н/о +30.4 +10.9 30 +31 +31 жарко 1012.4 1011.0
04 11.10 З 5 н/о н/о +31.4 +12.2 31 +32 +32 жарко 1011.8 1010.4
06 11.10 З 8 н/о н/о +30.3 +11.3 31 +31 +31 жарко 1011.0 1009.6
07 11.10 З 7 н/о н/о +30.0 +12.9 35 +31 +31 жарко 1010.7 1009.3
09 11.10 З 8 н/о н/о +26.8 +16.1 52 +30 +30 душно 1010.9 1009.5
10 11.10 З 6 н/о н/о +25.3 +15.9 56 +29 +29 душно 1011.5 1010.1
12 11.10 З 5 н/о н/о +23.8 +19.1 75 +29 +29 душно 1013.3 1011.9
13 11.10 З 5 н/о н/о +23.5 +19.2 77 +28 +28 душно 1013.8 1012.4
15 11.10 СЗ 3 н/о н/о +22.7 +19.9 84 +29 +29 очень
душно
1013.8 1012.4
16 11.10 З 3 н/о н/о +22.6 +17.5 73 +28 +28 душно 1013.2 1011.8
18 11.10 ЮЗ 3 н/о н/о +21.2 +16.4 74 +25 +25 комфорт 1012.3 1010.9
19 11.10 ЮЗ 3 н/о н/о +20.4 +14.5 69 +23 +23 комфорт 1012.0 1010.6
21 11.10 З 2 н/о н/о +18.2 +13.7 75 +19 +19 1012.6 1011.2
22 11.10 ЮЗ 2 н/о н/о +17.9 +13.4 75 +18 +18 1013.1 1011.7
00 12.10 Ю 2 н/о н/о +22.6 +12.5 53 +25 +25 комфорт 1013.8 1012.4
01 12.10 З 2 н/о н/о +26.5 +11.4 39 +28 +28 жарко 1013.8 1012.4
03 12.10 З 5 н/о н/о +30.0 +10.5 30 +30 +30 жарко 1013.4 1012.0
04 12.10 СЗ 6 н/о н/о +30.5 +8.8 26 +30 +30 жарко 1012.7 1011.3
06 12.10 З 7 н/о н/о +30.5 +7.7 24 +29 +29 жарко 1011.6 1010.2
07 12.10 З 7 н/о н/о +30.3 +9.8 28 +30 +30 жарко 1011.3 1009.9
09 12.10 З 6 н/о н/о +27.7 +14.0 43 +30 +30 жарко 1011.3 1009.9
10 12.10 З 5 н/о н/о +26.1 +13.6 46 +28 +28 жарко 1011.7 1010.3
12 12.10 З 3 н/о н/о +23.9 +16.2 62 +27 +27 жарко 1012.9 1011.5
13 12.10 З 4 н/о н/о +23.3 +18.2 73 +29 +29 душно 1013.3 1011.9 +32.1
15 12.10 З 3 н/о н/о +22.3 +19.3 83 +28 +28 душно 1013.5 1012.1
16 12.10 З 4 н/о н/о +22.0 +20.6 92 +28 +28 душно 1013.3 1011.9
18 12.10 ЮЗ 4 н/о н/о +20.9 +16.5 76 +25 +25 комфорт 1012.4 1011.0
19 12.10 ЮЗ 4 н/о н/о +20.3 +16.9 81 +24 +24 комфорт 1012.3 1010.9
21 12.10 ЮЗ 2 н/о н/о +18.5 +16.7 89 +20 +20 1012.8 1011.4
22 12.10 ЮЗ 2 н/о н/о +18.2 +17.0 93 +19 +19 1013.3 1011.9
00 13.10 ЮЗ 5 н/о н/о +22.9 +15.7 64 +27 +27 душно 1014.0 1012.6
01 13.10 ЮЗ 5 н/о н/о +25.1 +14.3 51 +28 +28 жарко 1014.1 1012.7 +17.9
03 13.10 З 6 н/о н/о +27.6 +17.5 54 +32 +32 очень
душно
1013.1 1011.7
04 13.10 З 8 н/о н/о +28.2 +18.6 56 +33 +33 очень
душно
1012.1 1010.7
06 13.10 З 9 н/о н/о +28.5 +18.0 53 +33 +33 очень
душно
1011.3 1009.9
07 13.10 З 7 н/о н/о +27.7 +18.1 56 +32 +32 очень
душно
1010.9 1009.5
09 13.10 З 9 н/о н/о +25.0 +20.3 75 +31 +31 очень
душно
1011.2 1009.8
10 13.10 З 7 н/о н/о +24.7 +20.4 77 +31 +31 очень
душно
1011.5 1010.1
12 13.10 З 6 н/о н/о +24.4 +21.7 85 +31 +31 очень
душно
1012.6 1011.2
13 13.10 З 4 н/о н/о +24.1 +22.5 91 +32 +32 очень
душно
1012.8 1011.4 +29.4
15 13.10 З 5 н/о н/о +23.5 +22.3 93 +31 +31 очень
душно
1012.1 1010.7
16 13.10 З 5 н/о н/о +23.1 +21.2 89 +31 +31 очень
душно
1011.9 1010.5
18 13.10 ЮЗ 5 н/о н/о +22.1 +18.1 78 +27 +27 душно 1011.6 1010.2
19 13.10 ЮЗ 4 н/о н/о +21.4 +18.4 83 +26 +26 душно 1011.8 1010.4
21 13.10 ЮЗ 3 н/о н/о +20.0 +19.5 97 +24 +24 комфорт 1012.8 1011.4
22 13.10 ЮЗ 4 н/о н/о +19.5 +19.5 100 +22 +22 комфорт 1013.4 1012.0
00 14.10 ЮЗ 6 н/о н/о +23.0 +15.1 61 +27 +27 душно 1014.5 1013.1
01 14.10 Ю 8 н/о н/о +24.8 +12.7 47 +27 +27 жарко 1014.7 1013.3 +19.6
03 14.10 ЮЗ 7 н/о н/о +28.7 +11.7 35 +30 +30 жарко 1013.7 1012.3
04 14.10 ЮЗ 7 н/о н/о +29.6 +10.7 31 +30 +30 жарко 1012.9 1011.5
06 14.10 З 9 н/о н/о +27.7 +15.4 47 +31 +31 душно 1011.7 1010.3
07 14.10 З 10 н/о н/о +27.7 +16.6 51 +31 +31 душно 1011.2 1009.8
09 14.10 З 9 н/о н/о +26.4 +16.1 53 +30 +30 душно 1011.6 1010.2
10 14.10 З 8 н/о н/о +24.4 +15.9 59 +28 +28 душно 1012.3 1010.9
12 14.10 З 7 н/о н/о +23.2 +17.0 68 +28 +28 душно 1013.4 1012.0
13 14.10 З 6 н/о н/о +23.1 +18.2 74 +29 +29 очень
душно
1013.8 1012.4 +30.3
15 14.10 З 4 н/о н/о +21.7 +13.6 60 +6 +6 1013.7 1012.3
16 14.10 ЮЗ 4 н/о н/о +21.4 +12.8 58 +24 +24 комфорт 1013.5 1012.1
18 14.10 ЮЗ 4 н/о н/о +20.1 +9.7 51 +21 +21 комфорт 1013.0 1011.6
19 14.10 ЮЗ 3 н/о н/о +19.0 +9.2 53 +20 +20 1013.0 1011.6
21 14.10 ЮЗ 3 н/о н/о +16.6 +9.1 61 +17 +17 1013.8 1012.4
22 14.10 ЮЗ 3 н/о н/о +16.3 +8.8 61 +16 +16 1014.6 1013.2
00 15.10 Ю 4 н/о н/о +24.0 +7.6 35 +24 +24 комфорт 1015.4 1014.0
01 15.10 Ю 4 н/о н/о +27.2 +7.1 28 +27 +27 жарко 1015.5 1014.1
03 15.10 ЮЗ 2 н/о н/о +30.7 +2.0 16 +28 +28 жарко 1014.8 1013.4
04 15.10 ЮЗ 2 н/о н/о +32.8 +0.8 13 +30 +30 жарко 1014.0 1012.6
06 15.10 СЗ 7 н/о н/о +30.4 +7.6 24 +29 +29 жарко 1013.1 1011.7
07 15.10 СЗ 7 н/о н/о +29.6 +9.2 28 +29 +29 жарко 1013.0 1011.6
09 15.10 З 6 н/о н/о +27.8 +12.6 39 +29 +29 жарко 1013.2 1011.8
10 15.10 З 6 н/о н/о +25.0 +17.0 61 +29 +29 душно 1014.2 1012.8
12 15.10 З 2 н/о н/о +23.1 +16.2 65 +28 +28 душно 1015.2 1013.8
13 15.10 З 2 н/о н/о +21.8 +15.6 68 +25 +25 комфорт 1015.6 1014.2
15 15.10 З 2 н/о н/о +20.6 +16.0 75 +24 +24 комфорт 1015.1 1013.7
16 15.10 З 2 н/о н/о +20.0 +15.6 76 +23 +23 комфорт 1014.5 1013.1
18 15.10 З 2 н/о н/о +18.9 +16.0 83 +21 +21 комфорт 1013.3 1011.9
19 15.10 ЮЗ 2 н/о н/о +17.9 +14.8 82 +19 +19 1012.9 1011.5
21 15.10 ЮЗ 3 н/о н/о +15.6 +12.5 82 +15 +15 1013.2 1011.8
22 15.10 Ю 3 н/о н/о +16.1 +12.8 81 +16 +16 1013.6 1012.2
00 16.10 Ю 2 н/о н/о +23.2 +13.4 54 +26 +26 жарко 1014.0 1012.6
01 16.10 В 2 н/о н/о +27.8 +11.4 36 +29 +29 жарко 1013.9 1012.5
03 16.10 С 3 н/о н/о +31.6 +12.9 32 +32 +32 жарко 1013.3 1011.9
04 16.10 С 3 н/о н/о +33.8 +9.1 22 +33 +33 жарко 1012.6 1011.2
06 16.10 С 6 н/о н/о +35.7 +0.7 11 +32 +32 жарко 1010.9 1009.5
07 16.10 С 7 н/о н/о +32.0 +12.8 31 +33 +33 жарко 1010.9 1009.5
09 16.10 С 5 н/о н/о +29.3 +10.9 32 +30 +30 жарко 1010.8 1009.4
10 16.10 С 3 н/о н/о +27.0 +14.7 47 +30 +30 душно 1011.8 1010.4

 

Местоположение метеостанции Mardie (Западная Австралия, Австралия): широта -21.18 долгота 115.97 высота над уровнем моря 12 м.

В архиве по умолчанию представлена погода в Mardie за последнюю неделю. Архивные данные за месяц целиком и за предыдущие месяцы, начиная с января 2011 года, Вы можете получить, выбрав интересующий диапазон дат из раскрывающегося списка и нажав кнопку "Ввод!".


*Определитесь, кто Вы:
робот инопланетянин человек

Внимание! Время в таблицах - всемирное. Для получения местного времени необходимо прибавить поправку, которая в Mardie равна 8 ч.

Смотрите также архив погоды в соседних городах и на ближайших метеорологических станциях:

Погода в Barrow Island Airport (Западная Австралия, Австралия) (68 км)
Погода в Varanus Island (Западная Австралия, Австралия) (72 км)
Погода в Karratha Aero (Западная Австралия, Австралия) (98 км)
Погода в Thevenard Island (Западная Австралия, Австралия) (103 км)
Погода в Onslow Airport (Западная Австралия, Австралия) (104 км)
Погода в Roebourne Aero (Западная Австралия, Австралия) (132 км)
Погода в Learmonth Airport (Западная Австралия, Австралия) (228 км)
Погода в Paraburdoo Aero (Западная Австралия, Австралия) (287 км)
Погода в Port Hedland Apardoo (Западная Австралия, Австралия) (291 км)
Погода в Marble Bar (Западная Австралия, Австралия) (392 км)

Пояснения к столбцам:

Ветер - указаны скорость ветра в м/с - средняя за 10 мин, порывы в срок и между сроками (в фигурных скобках) и направление, откуда дует ветер: С - северный, СВ - северо-восточный, В - восточный, ЮВ - юго-восточный, Ю - южный, ЮЗ - юго-западный, З - западный, СЗ - северо-западный.
Видимость - горизонтальная дальность видимости в метрах или километрах. При видимости от 1 до 10 км при отсутствии осадков обычно наблюдается дымка, при ухудшении видимости до 1 км и менее - туман. В сухую погоду видимость может ухудшаться дымом, пылью или мглою.
Явления - указаны атмосферные явления, наблюдавшиеся в срок или в последний час перед сроком; фигурными скобками обозначены явления, наблюдавшиеся между сроками (за 1-3 часа до срока); квадратными скобками обозначены град или гололедные отложения с указанием их диаметра в мм.
Облачность - указаны через наклонную черту общая и нижняя облачность в баллах и высота нижней границы облаков в метрах; квадратными скобками обозначены формы облаков: Ci - перистые, Cs - перисто-слоистые, Cc - перисто-кучевые, Ac - высококучевые, As - высокослоистые, Sc - слоисто-кучевые, Ns - слоисто-дождевые, Cu - кучевые, Cb - кучево-дождевые. Подробнее классификацию облаков см. в Атласе облаков (PDF).
T - Температура воздуха - температура, измеренная на высоте 2 м над землей.
Td - Температура точки росы - температура, при понижении до которой содержащийся в воздухе водяной пар достигнет насыщения.
f - Относительная влажность воздуха - влажноcть воздуха, измеренная на высоте 2 м над землей.
Te - Эффективная температура - температура, которую ощущает одетый по сезону человек в тени. Характеристика душности погоды. При расчете учитывается влияние влажности воздуха и скорости ветра на теплоощущения человека.
Tes - Эффективная температура на солнце - температура, которую ощущает человек, с поправкой на солнечный нагрев. Характеристика знойности погоды. Зависит от высоты солнца над горизонтом, облачности и скорости ветра. Ночью, в пасмурную погоду, а также при ветре 12 м/с и более поправка равна нулю.
P - Атмосферное давление - приведенное к уровню моря атмосферное давление.
Po - Атмосферное давление - измеренное на уровне метеостанции атмосферное давление.
Tmin - Минимальная температура - минимум температуры воздуха на высоте 2 м над землей.
Tmax - Максимальная температура - максимум температуры воздуха на высоте 2 м над землей.
R - Количество осадков - Количество выпавших осадков за период времени, мм. При наведении курсора мыши на число - период времени, за который выпало указанное количество осадков.
R24 - Количество осадков - Количество выпавших осадков за 24 часа, мм.
S - Снежный покров - Высота снежного покрова, см. При наведении курсора мыши на число - состояние снежного покрова и степень покрытия местности в баллах.